{"data":{"norad_id":67977,"intl_designator":"2026-038S","name":"STARLINK-36904","alt_names":[],"object_type":"PAYLOAD","status":"ACTIVE","operator":null,"country":"US","launch_date":"2026-02-25","launch_site_code":"AFWTR","launch_vehicle":null,"mission":null,"orbit_class":"UNKNOWN","rcs_meters":null,"size_class":null,"mass_kg":null,"dimensions":null,"purposes":["comms"],"wikipedia_slug":null,"has_3d_model":false,"image_url":null,"decayed_at":null,"tle_current":{"epoch":"2026-09-19T23:09:14.849280Z","epoch_age_seconds":105867,"freshness":"FRESH","line1":"1 67977U 26038S   26262.96475520  .00014752  00000+0  45822-3 0  9993","line2":"2 67977  97.2850 271.3475 0001848  92.9804 267.1651 15.33455676 33011","mean_motion":15.33455676,"eccentricity":0.0001848,"inclination_deg":97.285,"raan_deg":271.3475,"arg_perigee_deg":92.9804,"mean_anomaly_deg":267.1651,"bstar":0.00045822,"rev_number":3301,"period_min":93.905550876842,"perigee_km":464.24670417138,"apogee_km":466.77611662386,"semimajor_km":6843.6484103976,"source":"CELESTRAK","updated_at":"2026-09-20T09:00:43.732489Z"}}}